GW2484 Weather Reports


time (UTC)temp
C
wind
direction
speed
KPH
gust
KPH
rain 1hr
cm
rain 24hr
cm
rain mn
cm
humidity
%
barometer
mb
20260906193514 39 279 4.8 14.5 0.00 0.00 0.00 34 1012.6
20260906193024 39 243 6.4 12.9 0.00 0.00 0.00 35 1012.6
20260906192507 39 305 4.8 8.0 0.00 0.00 0.00 34 1012.6
20260906192014 39 338 4.8 11.3 0.00 0.00 0.00 34 1012.7
20260906191516 39 217 1.6 11.3 0.00 0.00 0.00 34 1012.9
20260906191004 39 290 4.8 9.7 0.00 0.00 0.00 35 1012.9
20260906190511 38 210 3.2 9.7 0.00 0.00 0.00 35 1013.0
20260906190027 38 326 0.0 9.7 0.00 0.00 0.00 35 1013.0
20260906185513 38 334 1.6 16.1 0.00 0.00 0.00 37 1013.1
20260906185015 38 283 4.8 16.1 0.00 0.00 0.00 34 1013.2
20260906184525 38 334 4.8 8.0 0.00 0.00 0.00 39 1013.2
20260906184016 38 318 3.2 8.0 0.00 0.00 0.00 38 1013.3
20260906183510 38 333 4.8 9.7 0.00 0.00 0.00 36 1013.4
20260906183009 38 304 0.0 9.7 0.00 0.00 0.00 38 1013.6
20260906182514 38 235 3.2 6.4 0.00 0.00 0.00 38 1013.5
20260906182011 37 186 0.0 6.4 0.00 0.00 0.00 37 1013.7
20260906181537 37 270 1.6 11.3 0.00 0.00 0.00 37 1013.8
20260906181012 38 262 6.4 11.3 0.00 0.00 0.00 38 1013.9
20260906180508 38 205 4.8 6.4 0.00 0.00 0.00 39 1013.9
20260906180036 37 327 1.6 8.0 0.00 0.00 0.00 37 1014.0
20260906175511 37 279 4.8 8.0 0.00 0.00 0.00 38 1014.2
20260906175008 37 248 1.6 6.4 0.00 0.00 0.00 40 1014.3
20260906174530 37 248 3.2 8.0 0.00 0.00 0.00 39 1014.4
20260906174010 37 297 4.8 8.0 0.00 0.00 0.00 40 1014.4
20260906173512 37 241 3.2 8.0 0.00 0.00 0.00 41 1014.5
20260906173026 37 210 3.2 8.0 0.00 0.00 0.00 41 1014.5
20260906172507 37 299 1.6 8.0 0.00 0.00 0.00 41 1014.6
20260906172018 37 281 3.2 8.0 0.00 0.00 0.00 46 1014.7
20260906171520 37 233 1.6 6.4 0.00 0.00 0.00 44 1014.7
20260906171005 36 39 0.0 8.0 0.00 0.00 0.00 42 1014.9
20260906170516 37 341 4.8 8.0 0.00 0.00 0.00 47 1015.0
20260906170021 37 252 1.6 8.0 0.00 0.00 0.00 45 1015.1
20260906165520 36 306 3.2 8.0 0.00 0.00 0.00 47 1015.2
20260906165017 36 283 4.8 8.0 0.00 0.00 0.00 45 1015.2
20260906164513 36 259 1.6 4.8 0.00 0.00 0.00 47 1015.2
20260906164014 36 356 0.0 4.8 0.00 0.00 0.00 47 1015.3
20260906163516 35 359 1.6 4.8 0.00 0.00 0.00 48 1015.3
20260906163027 35 15 0.0 3.2 0.00 0.00 0.00 49 1015.4
20260906162516 35 15 1.6 4.8 0.00 0.00 0.00 47 1015.4
20260906162013 35 15 1.6 4.8 0.00 0.00 0.00 49 1015.3
20260906161529 35 352 1.6 4.8 0.00 0.00 0.00 51 1015.3
20260906161018 35 358 1.6 4.8 0.00 0.00 0.00 49 1015.2
20260906160510 35 359 0.0 4.8 0.00 0.00 0.00 1015.3
20260906160033 35 358 3.2 4.8 0.00 0.00 0.00 1015.3
20260906155514 34 294 0.0 6.4 0.00 0.00 0.00 1015.4
20260906155022 34 294 1.6 6.4 0.00 0.00 0.00 54 1015.4
20260906154529 34 283 4.8 6.4 0.00 0.00 0.00 54 1015.4
20260906154010 33 285 3.2 6.4 0.00 0.00 0.00 53 1015.4
20260906153515 33 281 3.2 6.4 0.00 0.00 0.00 54 1015.3
20260906153029 33 244 3.2 6.4 0.00 0.00 0.00 55 1015.3
20260906152508 33 326 0.0 4.8 0.00 0.00 0.00 56 1015.3
20260906152015 33 339 1.6 4.8 0.00 0.00 0.00 56 1015.2
20260906151532 32 357 1.6 3.2 0.00 0.00 0.00 58 1015.2
20260906151015 32 357 1.6 3.2 0.00 0.00 0.00 57 1015.2
20260906150515 32 360 0.0 3.2 0.00 0.00 0.00 58 1015.1
20260906150025 32 1 0.0 3.2 0.00 0.00 0.00 59 1015.1
20260906145504 31 325 0.0 3.2 0.00 0.00 0.00 62 1015.1
20260906145003 31 325 1.6 3.2 0.00 0.00 0.00 61 1015.1
20260906144529 31 325 0.0 3.2 0.00 0.00 0.00 62 1015.0
20260906144004 30 325 0.0 3.2 0.00 0.00 0.00 61 1015.0
20260906143514 31 326 0.0 3.2 0.00 0.00 0.00 62 1015.0
20260906143012 31 325 1.6 3.2 0.00 0.00 0.00 61 1015.0
20260906142503 31 327 1.6 3.2 0.00 0.00 0.00 63 1015.0
20260906142012 30 327 1.6 3.2 0.00 0.00 0.00 61 1014.9
20260906141516 30 337 1.6 3.2 0.00 0.00 0.00 63 1014.9
20260906141003 30 337 0.0 3.2 0.00 0.00 0.00 64 1014.9
20260906140512 29 337 1.6 3.2 0.00 0.00 0.00 64 1014.9
20260906140012 29 337 0.0 4.8 0.00 0.00 0.00 67 1014.8
20260906135503 28 337 1.6 4.8 0.00 0.00 0.00 68 1014.7
20260906135010 28 239 0.0 3.2 0.00 0.00 0.00 70 1014.6
20260906134531 27 237 0.0 3.2 0.00 0.00 0.00 71 1014.6
20260906134014 27 237 1.6 3.2 0.00 0.00 0.00 71 1014.6
20260906133509 27 235 1.6 4.8 0.00 0.00 0.00 73 1014.6
20260906133006 27 235 1.6 4.8 0.00 0.00 0.00 74 1014.7
20260906132510 26 219 0.0 4.8 0.00 0.00 0.00 75 1014.6
20260906132006 26 218 0.0 3.2 0.00 0.00 0.00 76 1014.7
20260906131504 25 218 0.0 3.2 0.00 0.00 0.00 77 1014.6
20260906131011 25 218 1.6 3.2 0.00 0.00 0.00 80 1014.6
20260906130503 25 213 0.0 0.0 0.00 0.00 0.00 81 1014.6
20260906130023 24 213 0.0 0.0 0.00 0.00 0.00 81 1014.7
20260906125508 24 213 0.0 3.2 0.00 0.00 0.00 82 1014.6
20260906125006 24 213 0.0 3.2 0.00 0.00 0.00 81 1014.6
20260906124520 24 213 0.0 1.6 0.00 0.00 0.00 81 1014.4
20260906124008 23 213 0.0 1.6 0.00 0.00 0.00 82 1014.4
20260906123504 23 213 0.0 0.0 0.00 0.00 0.00 81 1014.4
20260906123035 23 213 0.0 1.6 0.00 0.00 0.00 81 1014.4
20260906122517 23 213 0.0 1.6 0.00 0.00 0.00 81 1014.4
20260906122018 23 213 0.0 0.0 0.00 0.00 0.00 81 1014.4
20260906121518 23 248 0.0 0.0 0.00 0.00 0.00 81 1014.4
20260906121018 23 248 0.0 0.0 0.00 0.00 0.00 82 1014.4
20260906120521 23 248 0.0 0.0 0.00 0.00 0.00 82 1014.3
20260906120012 23 248 0.0 0.0 0.00 0.00 0.00 81 1014.1
20260906115504 24 248 0.0 0.0 0.00 0.00 0.00 81 1014.1
20260906115012 24 248 0.0 0.0 0.00 0.00 0.00 81 1014.0
20260906114516 24 248 0.0 0.0 0.00 0.00 0.00 81 1013.9
20260906114015 24 248 0.0 0.0 0.00 0.00 0.00 81 1013.9
20260906113511 24 248 0.0 0.0 0.00 0.00 0.00 80 1013.9
20260906113032 24 248 0.0 0.0 0.00 0.00 0.00 80 1013.9
20260906112514 24 248 0.0 0.0 0.00 0.00 0.00 80 1013.8
20260906112016 24 248 0.0 0.0 0.00 0.00 0.00 80 1013.7
20260906111505 24 248 0.0 0.0 0.00 0.00 0.00 80 1013.7
20260906111013 24 248 0.0 0.0 0.00 0.00 0.00 80 1013.5
20260906110505 24 248 0.0 0.0 0.00 0.00 0.00 80 1013.5
20260906110027 24 248 0.0 0.0 0.00 0.00 0.00 80 1013.4
20260906105514 24 248 0.0 0.0 0.00 0.00 0.00 80 1013.5
20260906105008 25 248 0.0 0.0 0.00 0.00 0.00 80 1013.5
20260906104527 25 248 0.0 0.0 0.00 0.00 0.00 80 1013.4
20260906104008 25 248 0.0 0.0 0.00 0.00 0.00 80 1013.5
20260906103515 25 248 0.0 0.0 0.00 0.00 0.00 80 1013.5
20260906103024 25 248 0.0 0.0 0.00 0.00 0.00 80 1013.5
20260906102506 25 248 0.0 0.0 0.00 0.00 0.00 80 1013.5
20260906102016 25 248 0.0 0.0 0.00 0.00 0.00 80 1013.5
20260906101533 25 248 0.0 0.0 0.00 0.00 0.00 80 1013.5
20260906101016 25 248 0.0 0.0 0.00 0.00 0.00 80 1013.5
20260906100515 25 248 0.0 0.0 0.00 0.00 0.00 80 1013.4
20260906100023 25 248 0.0 0.0 0.00 0.00 0.00 80 1013.5
20260906095520 25 248 0.0 0.0 0.00 0.00 0.00 80 1013.6
20260906095014 25 248 0.0 0.0 0.00 0.00 0.00 80 1013.5
20260906094516 25 248 0.0 0.0 0.00 0.00 0.00 81 1013.4
20260906094015 25 248 0.0 0.0 0.00 0.00 0.00 81 1013.5
20260906093513 25 248 0.0 0.0 0.00 0.00 0.00 81 1013.4
20260906093011 25 248 0.0 0.0 0.00 0.00 0.00 82 1013.2
20260906092516 25 248 0.0 0.0 0.00 0.00 0.00 81 1013.3
20260906092010 25 248 0.0 0.0 0.00 0.00 0.00 81 1013.3
20260906091533 25 248 0.0 0.0 0.00 0.00 0.00 81 1013.2
20260906091016 25 248 0.0 0.0 0.00 0.00 0.00 81 1013.2
20260906090508 25 248 0.0 0.0 0.00 0.00 0.00 81 1013.2
20260906090032 25 248 0.0 0.0 0.00 0.00 0.00 80 1013.2
20260906085511 25 248 0.0 0.0 0.00 0.00 0.00 80 1013.1
20260906085007 26 248 0.0 0.0 0.00 0.00 0.00 80 1013.1
20260906084532 26 248 0.0 0.0 0.00 0.00 0.00 79 1013.1
20260906084012 26 248 0.0 0.0 0.00 0.00 0.00 79 1012.9
20260906083518 26 248 0.0 0.0 0.00 0.00 0.00 78 1012.9
20260906083026 26 248 0.0 0.0 0.00 0.00 0.00 78 1012.9
20260906082507 26 248 0.0 0.0 0.00 0.00 0.00 77 1012.9
20260906082019 26 248 0.0 0.0 0.00 0.00 0.00 76 1012.9
20260906081523 26 248 0.0 0.0 0.00 0.00 0.00 77 1012.8
20260906081007 26 248 0.0 0.0 0.00 0.00 0.00 76 1012.8
20260906080517 26 248 0.0 0.0 0.00 0.00 0.00 75 1012.8
20260906080019 26 248 0.0 3.2 0.00 0.00 0.00 74 1012.8
20260906075517 26 248 0.0 3.2 0.00 0.00 0.00 74 1012.9
20260906075016 26 248 0.0 0.0 0.00 0.00 0.00 74 1012.9
20260906074517 26 248 0.0 0.0 0.00 0.00 0.00 73 1012.7
20260906074013 26 248 0.0 0.0 0.00 0.00 0.00 73 1012.7
20260906073511 26 248 0.0 0.0 0.00 0.00 0.00 73 1012.7
20260906073013 26 248 0.0 0.0 0.00 0.00 0.00 73 1012.8
20260906072516 26 248 0.0 0.0 0.00 0.00 0.00 73 1012.8
20260906072011 26 248 0.0 0.0 0.00 0.00 0.00 73 1012.8
20260906071533 26 248 0.0 0.0 0.00 0.00 0.00 72 1012.8
20260906071017 26 248 0.0 0.0 0.00 0.00 0.00 73 1012.9
20260906070515 26 248 0.0 0.0 0.00 0.00 0.00 72 1012.9
20260906070031 26 248 0.0 0.0 0.00 0.00 0.00 72 1012.9
20260906065515 26 248 0.0 0.0 0.00 0.00 0.00 72 1012.9
20260906065010 26 248 0.0 0.0 0.00 0.00 0.00 71 1012.9
20260906064530 26 248 0.0 0.0 0.00 0.00 0.00 71 1012.9
20260906064016 26 248 0.0 0.0 0.00 0.00 0.00 71 1012.9
20260906063520 26 248 0.0 0.0 0.00 0.00 0.00 71 1012.9
20260906063032 26 248 0.0 0.0 0.00 0.00 0.00 70 1012.9
20260906062509 26 248 0.0 0.0 0.00 0.00 0.00 70 1013.0
20260906062015 27 248 0.0 0.0 0.00 0.00 0.00 70 1012.9
20260906061532 27 248 0.0 0.0 0.00 0.00 0.00 70 1012.9
20260906061009 27 248 0.0 0.0 0.00 0.00 0.00 69 1013.0
20260906060517 27 248 0.0 0.0 0.00 0.00 0.00 69 1013.0
20260906060032 27 248 0.0 0.0 0.00 0.00 0.00 69 1013.0
20260906055520 27 248 0.0 0.0 0.00 0.00 0.00 69 1012.9
20260906055020 27 248 0.0 0.0 0.00 0.00 0.00 69 1012.9
20260906054547 27 248 0.0 0.0 0.00 0.00 0.00 69 1012.9
20260906054019 27 248 0.0 0.0 0.00 0.00 0.00 68 1012.9
20260906053514 27 248 0.0 0.0 0.00 0.00 0.00 68 1012.9
20260906053017 27 248 0.0 0.0 0.00 0.00 0.00 68 1012.9
20260906052516 27 248 0.0 0.0 0.00 0.00 0.00 68 1012.8
20260906052016 27 248 0.0 0.0 0.00 0.00 0.00 68 1012.7
20260906051539 27 248 0.0 0.0 0.00 0.00 0.00 67 1012.7
20260906051016 27 248 0.0 0.0 0.00 0.00 0.00 67 1012.8
20260906050513 27 248 0.0 0.0 0.00 0.00 0.00 67 1012.7
20260906050037 28 248 0.0 0.0 0.00 0.00 0.00 67 1012.7
20260906045515 28 248 0.0 0.0 0.00 0.00 0.00 67 1012.8
20260906045018 28 248 0.0 3.2 0.00 0.00 0.00 67 1012.9
20260906044531 28 248 0.0 8.0 0.00 0.00 0.00 66 1012.9
20260906044002 28 248 4.8 8.0 0.00 0.00 0.00 67 1012.9
20260906043509 28 296 1.6 3.2 0.00 0.00 0.00 67 1012.7
20260906043014 28 298 0.0 0.0 0.00 0.00 0.00 66 1012.7
20260906042503 28 298 0.0 0.0 0.00 0.00 0.00 66 1012.7
20260906042008 28 298 0.0 0.0 0.00 0.00 0.00 66 1012.6
20260906041504 28 298 0.0 0.0 0.00 0.00 0.00 65 1012.6
20260906041001 28 298 0.0 0.0 0.00 0.00 0.00 65 1012.6
20260906040509 28 298 0.0 0.0 0.00 0.00 0.00 64 1012.7
20260906040003 28 298 0.0 0.0 0.00 0.00 0.00 64 1012.6
20260906035509 28 298 0.0 0.0 0.00 0.00 0.00 64 1012.7
20260906035021 28 298 0.0 0.0 0.00 0.00 0.00 64 1012.7
20260906034503 28 298 0.0 0.0 0.00 0.00 0.00 64 1012.7
20260906034009 28 298 0.0 0.0 0.00 0.00 0.00 64 1012.6
20260906033505 28 298 0.0 0.0 0.00 0.00 0.00 63 1012.5
20260906033014 29 298 0.0 0.0 0.00 0.00 0.00 63 1012.5
20260906032507 29 298 0.0 0.0 0.00 0.00 0.00 63 1012.6
20260906032002 29 298 0.0 0.0 0.00 0.00 0.00 62 1012.7
20260906031522 29 298 0.0 0.0 0.00 0.00 0.00 62 1012.7
20260906031007 29 298 0.0 0.0 0.00 0.00 0.00 62 1012.7
20260906030504 30 298 0.0 0.0 0.00 0.00 0.00 61 1012.8
20260906030016 30 298 0.0 0.0 0.00 0.00 0.00 60 1012.8
20260906025506 30 298 0.0 0.0 0.00 0.00 0.00 60 1012.7
20260906025004 30 298 0.0 3.2 0.00 0.00 0.00 60 1012.7
20260906024513 30 298 1.6 4.8 0.00 0.00 0.00 60 1012.5
20260906024002 30 298 1.6 4.8 0.00 0.00 0.00 60 1012.5
20260906023512 30 162 0.0 0.0 0.00 0.00 0.00 59 1012.3
20260906023013 30 162 0.0 0.0 0.00 0.00 0.00 58 1012.3
20260906022503 30 162 0.0 0.0 0.00 0.00 0.00 58 1012.1
20260906022010 30 162 0.0 0.0 0.00 0.00 0.00 57 1012.0
20260906021510 30 162 0.0 0.0 0.00 0.00 0.00 57 1012.0
20260906021003 30 162 0.0 0.0 0.00 0.00 0.00 56 1011.9
20260906020510 30 162 0.0 0.0 0.00 0.00 0.00 56 1012.0
20260906020008 31 162 0.0 0.0 0.00 0.00 0.00 55 1011.9
20260906015513 31 162 0.0 0.0 0.00 0.00 0.00 55 1011.9
20260906015007 31 162 0.0 0.0 0.00 0.00 0.00 54 1011.9
20260906014504 31 162 0.0 0.0 0.00 0.00 0.00 54 1011.8
20260906014010 31 162 0.0 0.0 0.00 0.00 0.00 54 1011.8
20260906013506 31 162 0.0 0.0 0.00 0.00 0.00 52 1011.8
20260906013004 31 162 0.0 0.0 0.00 0.00 0.00 52 1011.7
20260906012513 32 162 0.0 0.0 0.00 0.00 0.00 52 1011.5
20260906012005 32 162 0.0 0.0 0.00 0.00 0.00 51 1011.5
20260906011524 32 162 0.0 0.0 0.00 0.00 0.00 49 1011.4
20260906011009 32 162 0.0 0.0 0.00 0.00 0.00 49 1011.4
20260906010503 33 162 0.0 0.0 0.00 0.00 0.00 48 1011.4
20260906010023 33 162 0.0 0.0 0.00 0.00 0.00 48 1011.3
20260906005510 33 162 0.0 0.0 0.00 0.00 0.00 47 1011.3
20260906005003 33 162 0.0 0.0 0.00 0.00 0.00 46 1011.3
20260906004517 34 162 0.0 0.0 0.00 0.00 0.00 45 1011.3
20260906004003 34 162 0.0 0.0 0.00 0.00 0.00 45 1011.3
20260906003515 35 162 0.0 0.0 0.00 0.00 0.00 43 1011.3
20260906003012 35 162 0.0 0.0 0.00 0.00 0.00 43 1011.3
20260906002504 35 162 0.0 3.2 0.00 0.00 0.00 41 1011.3
20260906002012 36 162 0.0 3.2 0.00 0.00 0.00 41 1011.3
20260906001508 36 187 0.0 3.2 0.00 0.00 0.00 40 1011.3
20260906001003 36 187 0.0 4.8 0.00 0.00 0.00 40 1011.3
20260906000512 36 187 1.6 4.8 0.00 0.00 0.00 39 1011.3
20260906000008 36 192 3.2 6.4 0.00 0.00 0.00 38 1011.2
20260905235515 37 186 3.2 6.4 0.00 0.00 0.00 37 1011.2
20260905235008 37 181 3.2 6.4 0.00 0.00 0.00 36 1011.2
20260905234528 37 219 1.6 6.4 0.00 0.00 0.00 1011.2
20260905234012 37 179 1.6 6.4 0.00 0.00 0.00 1011.1
20260905233507 38 215 0.0 6.4 0.00 0.00 0.00 1011.0
20260905233006 38 187 1.6 8.0 0.00 0.00 0.00 1011.0
20260905232512 38 175 1.6 8.0 0.00 0.00 0.00 35 1011.0
20260905232006 38 279 1.6 11.3 0.00 0.00 0.00 35 1011.0
20260905231526 38 164 3.2 14.5 0.00 0.00 0.00 34 1011.0
20260905231011 38 187 4.8 12.9 0.00 0.00 0.00 33 1011.1
20260905230504 38 196 4.8 12.9 0.00 0.00 0.00 33 1011.1
20260905230037 38 183 1.6 11.3 0.00 0.00 0.00 34 1011.0
20260905225510 38 173 6.4 12.9 0.00 0.00 0.00 33 1011.1
20260905225018 38 216 6.4 12.9 0.00 0.00 0.00 34 1011.1
20260905224549 38 196 4.8 12.9 0.00 0.00 0.00 34 1011.1
20260905224004 38 207 3.2 11.3 0.00 0.00 0.00 33 1011.2
20260905223514 38 191 3.2 9.7 0.00 0.00 0.00 33 1011.2
20260905223020 38 175 4.8 11.3 0.00 0.00 0.00 33 1011.3
20260905222506 38 153 6.4 16.1 0.00 0.00 0.00 33 1011.3
20260905222014 38 164 4.8 16.1 0.00 0.00 0.00 32 1011.3
20260905221513 38 158 4.8 12.9 0.00 0.00 0.00 32 1011.4
20260905221017 38 156 4.8 12.9 0.00 0.00 0.00 36 1011.4
20260905220513 38 181 8.0 12.9 0.00 0.00 0.00 34 1011.4
20260905220010 38 189 1.6 12.9 0.00 0.00 0.00 33 1011.5
20260905215515 39 181 4.8 12.9 0.00 0.00 0.00 32 1011.5
20260905215014 39 119 4.8 12.9 0.00 0.00 0.00 33 1011.6
20260905214508 39 183 4.8 14.5 0.00 0.00 0.00 32 1011.6
20260905214016 39 194 8.0 14.5 0.00 0.00 0.00 33 1011.7
20260905213510 39 83 1.6 8.0 0.00 0.00 0.00 38 1011.7
20260905213036 38 110 3.2 9.7 0.00 0.00 0.00 36 1011.7
20260905212517 38 156 1.6 12.9 0.00 0.00 0.00 36 1011.7
20260905212008 38 190 6.4 12.9 0.00 0.00 0.00 35 1011.8
20260905211540 39 31 0.0 9.7 0.00 0.00 0.00 35 1011.8
20260905211016 38 100 4.8 12.9 0.00 0.00 0.00 37 1011.9
20260905210507 38 193 1.6 12.9 0.00 0.00 0.00 37 1012.0
20260905210039 38 275 3.2 14.5 0.00 0.00 0.00 37 1012.1
20260905205509 38 222 6.4 14.5 0.00 0.00 0.00 37 1012.2
20260905205019 38 32 0.0 16.1 0.00 0.00 0.00 36 1012.2
20260905204532 38 214 9.7 16.1 0.00 0.00 0.00 37 1012.3
20260905204010 38 279 6.4 12.9 0.00 0.00 0.00 37 1012.3
20260905203515 38 214 3.2 9.7 0.00 0.00 0.00 37 1012.4
20260905203020 37 171 3.2 12.9 0.00 0.00 0.00 39 1012.5
20260905202507 38 150 3.2 12.9 0.00 0.00 0.00 38 1012.6
20260905202013 38 129 6.4 12.9 0.00 0.00 0.00 38 1012.8
20260905201521 39 91 1.6 9.7 0.00 0.00 0.00 37 1012.8
20260905201015 38 60 1.6 9.7 0.00 0.00 0.00 40 1012.9
20260905200516 38 116 4.8 11.3 0.00 0.00 0.00 38 1013.0
20260905200034 38 140 4.8 19.3 0.00 0.00 0.00 38 1013.1
20260905195515 38 94 4.8 19.3 0.00 0.00 0.00 37 1013.2
20260905195011 38 132 8.0 12.9 0.00 0.00 0.00 38 1013.2
20260905194512 37 176 4.8 11.3 0.00 0.00 0.00 39 1013.2
20260905194016 38 163 3.2 8.0 0.00 0.00 0.00 40 1013.4